Regional Weather Roundup
Issued by NWS Jackson, KY

Home | Current Version | Previous Version | Graphics & Text | Print | Product List | Glossary On
Versions: 1 2 3 4 5 6 7 8 9 10 11 12 13 14 15 16 17 18 19 20 21 22 23 24 25 26 27 28 29 30 31 32 33 34 35 36 37 38 39 40 41 42 43 44 45 46 47 48 49 50
000
ASUS43 KJKL 270510
RWRJKL

EAST KENTUCKY HOURLY WEATHER ROUNDUP
NATIONAL WEATHER SERVICE JACKSON KY
1200 AM EST FRI FEB 27 2015

NOTE: "FAIR" INDICATES FEW OR NO CLOUDS BELOW 12,000 FEET WITH
NO SIGNIFICANT WEATHER AND/OR OBSTRUCTIONS TO VISIBILITY.

* THESE REPORTS ARE NOT UNDER NWS QUALITY CONTROL AND MAY NOT
  REPORT WEATHER SUCH AS PRECIPITATION AND FOG.

KYZ079-080-083-085-087-088-110-112-115-119-120-270600
...EASTERN KENTUCKY...

CITY           SKY/WX    TMP DP  RH WIND       PRES   REMARKS
JACKSON        LGT SNOW  23  16  74 N5        30.23R WCI  17
LONDON         LGT SNOW  26  18  71 N9        30.25R WCI  17
SOMERSET*      LGT SNOW  23  19  86 N10       30.30R WCI  12
MONTICELLO*    LGT SNOW  25  21  84 NW12      30.32R FOG     WCI  14
MIDDLESBORO*   CLOUDY    31  21  67 NW5       30.22R WCI  26
HAZARD APT*    FLURRIES  27  18  69 N3        30.23R
BLACK MTN*       N/A     18  16  93 N7          N/A  WCI   8
PIKEVILLE APT* FLURRIES  25  16  68 N9        30.20R WCI  15
BIG SANDY*     FLURRIES  24  17  75 N8        30.23R WCI  15
MOREHEAD APT*  FLURRIES  18   9  68 N10G16    30.32R WCI   6
$$

KYZ035-036-041-042-044-050-067-078-099-270600
...CENTRAL KENTUCKY...

CITY           SKY/WX    TMP DP  RH WIND       PRES   REMARKS
MT STERLING*   LGT SNOW  19  14  79 NE8       30.32R WCI   9
FLEMING/MASON* MOCLDY    14   7  73 N9        30.33R WCI   2
DANVILLE*      FLURRIES  19  16  86 N9        30.32R WCI   9
RICHMOND*      CLOUDY    19  14  79 N10       30.30R WCI   8
LEXINGTON      MOCLDY    15   8  73 N12       30.33R WCI   2
FRANKFORT      PTCLDY    16   6  65 N7        30.34R WCI   6
$$

KYZ091>093-OHZ055-061-077-WVZ005-015-034-035-042-270600
...SOUTHERN OHIO/WEST VIRGINIA...

CITY           SKY/WX    TMP DP  RH WIND       PRES   REMARKS
COVINGTON      PTCLDY    12   4  70 NW6       30.34R WCI   3
COLUMBUS         N/A     10   3  73 NW7       30.32R WCI  -1
DAYTON         CLEAR      6   2  83 NW6       30.33R WCI  -4
WILMINGTON     CLEAR      8   1  73 NW6       30.31R WCI  -2
HUNTINGTON     FLURRIES  17  12  80 N7        30.28R WCI   8
CHARLESTON     FLURRIES  23  16  74 NW10      30.23R WCI  12
PINEVILLE*     CLOUDY    30  21  69 MISG      30.19R
BECKLEY        CLOUDY    24  13  62 NW8       30.09R WCI  15
BLUEFIELD      CLOUDY    27  19  72 NW7       30.07R WCI  19
$$

VAZ002-007-008-TNZ017-027-036-066-071-270600
...SOUTHWEST VIRGINIA/EAST TENNESSEE...

CITY           SKY/WX    TMP DP  RH WIND       PRES   REMARKS
WISE*          CLOUDY    27  18  69 NW7       30.12R WCI  19
JONESVILLE*    CLOUDY    32  19  59 CALM      30.20R
ABINGDON*      CLOUDY    32  26  79 NW3       30.13R
BRISTOL        PTCLDY    28  27  96 CALM      30.16R FOG
KNOXVILLE      MOCLDY    31  29  92 CALM      30.20R
OAK RIDGE      CLOUDY    34  24  67 VRB3      30.22R
CROSSVILLE     CLOUDY    28  20  71 NW8       30.20R WCI  20
NASHVILLE      CLOUDY    27  18  69 N8G22     30.35R WCI  19
$$

...KEY TO REMARKS...
VSB - VISIBILITY IN MILES
WCI - WIND CHILL INDEX
HX  - HEAT INDEX

$$



USA.gov is the U.S. government's official web portal to all federal, state and local government web resources and services.